Time,TemperatureF,DewpointF,PressureIn,WindDirection,WindDirectionDegrees,WindSpeedMPH,WindSpeedGustMPH,Humidity,HourlyPrecipIn,Conditions,Clouds,dailyrainin,SoftwareType,DateUTC
2013-12-10 00:03:00,31.2,25.8,30.56,NE,46,0.0,1.0,80,0.00,,---,0.00,VWS V14.01,2013-12-10 08:03:00,
2013-12-10 00:08:00,31.2,26.1,30.56,NE,46,0.0,0.0,81,0.00,,---,0.00,VWS V14.01,2013-12-10 08:08:00,
2013-12-10 00:13:00,31.2,26.1,30.56,NE,46,2.0,2.0,81,0.00,,---,0.00,VWS V14.01,2013-12-10 08:13:00,
2013-12-10 00:18:00,31.1,26.0,30.55,NE,46,2.0,2.0,81,0.00,,---,0.00,VWS V14.01,2013-12-10 08:18:00,
2013-12-10 00:23:00,31.1,26.3,30.55,NE,46,0.0,1.0,82,0.00,,---,0.00,VWS V14.01,2013-12-10 08:23:00,
2013-12-10 00:28:00,31.1,26.0,30.55,NE,46,1.0,2.0,81,0.00,,---,0.00,VWS V14.01,2013-12-10 08:28:00,
2013-12-10 00:33:00,31.0,25.9,30.55,NE,46,0.0,0.0,81,0.00,,---,0.00,VWS V14.01,2013-12-10 08:33:00,
2013-12-10 00:38:00,31.1,26.0,30.55,NE,46,0.0,1.0,81,0.00,,---,0.00,VWS V14.01,2013-12-10 08:38:00,
2013-12-10 00:43:00,31.1,26.3,30.55,NE,46,0.0,1.0,82,0.00,,---,0.00,VWS V14.01,2013-12-10 08:43:00,
2013-12-10 00:48:00,31.1,26.3,30.55,NE,46,0.0,0.0,82,0.00,,---,0.00,VWS V14.01,2013-12-10 08:48:00,
2013-12-10 00:53:00,31.2,26.4,30.55,NE,46,0.0,0.0,82,0.00,,---,0.00,VWS V14.01,2013-12-10 08:53:00,
2013-12-10 00:58:00,31.2,26.4,30.55,NE,46,0.0,0.0,82,0.00,,---,0.00,VWS V14.01,2013-12-10 08:58:00,
2013-12-10 01:03:00,31.2,26.4,30.55,NE,46,0.0,0.0,82,0.00,,---,0.00,VWS V14.01,2013-12-10 09:03:00,
2013-12-10 01:07:00,31.2,26.4,30.55,NE,46,0.0,0.0,82,0.00,,---,0.00,VWS V14.01,2013-12-10 09:07:00,
2013-12-10 01:12:00,31.2,26.4,30.55,NE,46,0.0,1.0,82,0.00,,---,0.00,VWS V14.01,2013-12-10 09:12:00,
2013-12-10 01:17:00,31.3,26.5,30.55,NE,46,2.0,2.0,82,0.00,,---,0.00,VWS V14.01,2013-12-10 09:17:00,
2013-12-10 01:22:00,31.2,26.1,30.55,NE,46,3.0,4.0,81,0.00,,---,0.00,VWS V14.01,2013-12-10 09:22:00,
2013-12-10 01:27:00,31.2,26.4,30.55,NE,46,1.0,2.0,82,0.00,,---,0.00,VWS V14.01,2013-12-10 09:27:00,
2013-12-10 01:32:00,31.1,26.3,30.55,NE,46,0.0,0.0,82,0.00,,---,0.00,VWS V14.01,2013-12-10 09:32:00,
2013-12-10 01:37:00,31.1,26.3,30.55,NE,46,0.0,0.0,82,0.00,,---,0.00,VWS V14.01,2013-12-10 09:37:00,
2013-12-10 01:42:00,31.1,26.3,30.55,NE,46,0.0,0.0,82,0.00,,---,0.00,VWS V14.01,2013-12-10 09:42:00,
2013-12-10 01:47:00,31.1,26.3,30.55,NE,46,0.0,0.0,82,0.00,,---,0.00,VWS V14.01,2013-12-10 09:47:00,
2013-12-10 01:52:00,31.2,26.6,30.55,NE,46,0.0,2.0,83,0.00,,---,0.00,VWS V14.01,2013-12-10 09:52:00,
2013-12-10 01:57:00,31.2,26.6,30.55,NE,46,0.0,2.0,83,0.00,,---,0.00,VWS V14.01,2013-12-10 09:57:00,
2013-12-10 02:02:00,31.2,26.6,30.55,NE,46,1.0,2.0,83,0.00,,---,0.00,VWS V14.01,2013-12-10 10:02:00,
2013-12-10 02:07:00,31.3,26.8,30.55,NE,46,0.0,0.0,83,0.00,,---,0.00,VWS V14.01,2013-12-10 10:07:00,
2013-12-10 02:12:00,31.3,26.8,30.55,NE,46,0.0,1.0,83,0.00,,---,0.00,VWS V14.01,2013-12-10 10:12:00,
2013-12-10 02:17:00,31.2,26.6,30.55,NE,46,0.0,0.0,83,0.00,,---,0.00,VWS V14.01,2013-12-10 10:17:00,
2013-12-10 02:22:00,31.3,26.8,30.55,NE,46,0.0,1.0,83,0.00,,---,0.00,VWS V14.01,2013-12-10 10:22:00,
2013-12-10 02:27:00,31.3,26.8,30.55,NE,46,2.0,3.0,83,0.00,,---,0.00,VWS V14.01,2013-12-10 10:27:00,
2013-12-10 02:32:00,31.3,26.8,30.55,NE,46,3.0,3.0,83,0.00,,---,0.00,VWS V14.01,2013-12-10 10:32:00,
2013-12-10 02:38:00,31.3,26.8,30.55,NE,46,3.0,3.0,83,0.00,,---,0.00,VWS V14.01,2013-12-10 10:38:00,
2013-12-10 02:43:00,31.4,27.1,30.55,NE,46,0.0,1.0,84,0.00,,---,0.00,VWS V14.01,2013-12-10 10:43:00,
2013-12-10 02:48:00,31.4,27.1,30.55,NE,46,0.0,3.0,84,0.00,,---,0.00,VWS V14.01,2013-12-10 10:48:00,
2013-12-10 02:53:00,31.4,27.1,30.56,NE,46,0.0,0.0,84,0.00,,---,0.00,VWS V14.01,2013-12-10 10:53:00,
2013-12-10 02:58:00,31.4,26.8,30.56,NE,46,0.0,3.0,83,0.00,,---,0.00,VWS V14.01,2013-12-10 10:58:00,
2013-12-10 03:03:00,31.4,26.8,30.55,NE,46,4.0,4.0,83,0.00,,---,0.00,VWS V14.01,2013-12-10 11:03:00,
2013-12-10 03:08:00,31.3,26.8,30.56,NE,46,3.0,4.0,83,0.00,,---,0.00,VWS V14.01,2013-12-10 11:08:00,
2013-12-10 03:13:00,31.3,27.0,30.55,NE,46,4.0,4.0,84,0.00,,---,0.00,VWS V14.01,2013-12-10 11:13:00,
2013-12-10 03:18:00,31.4,27.1,30.55,NE,46,2.0,5.0,84,0.00,,---,0.00,VWS V14.01,2013-12-10 11:18:00,
2013-12-10 03:23:00,31.4,27.1,30.55,NE,46,1.0,3.0,84,0.00,,---,0.00,VWS V14.01,2013-12-10 11:23:00,
2013-12-10 03:28:00,31.5,27.2,30.55,NE,46,2.0,3.0,84,0.00,,---,0.00,VWS V14.01,2013-12-10 11:28:00,
2013-12-10 03:33:00,31.5,27.2,30.55,NE,46,3.0,4.0,84,0.00,,---,0.00,VWS V14.01,2013-12-10 11:33:00,
2013-12-10 03:38:00,31.5,27.2,30.55,NE,46,3.0,3.0,84,0.00,,---,0.00,VWS V14.01,2013-12-10 11:38:00,
2013-12-10 03:43:00,31.6,27.3,30.55,NE,46,2.0,3.0,84,0.00,,---,0.00,VWS V14.01,2013-12-10 11:43:00,
2013-12-10 03:48:00,31.6,27.3,30.55,NE,46,2.0,3.0,84,0.00,,---,0.00,VWS V14.01,2013-12-10 11:48:00,
2013-12-10 03:53:00,31.6,27.3,30.55,NE,46,2.0,3.0,84,0.00,,---,0.00,VWS V14.01,2013-12-10 11:53:00,
2013-12-10 03:58:00,31.6,27.0,30.55,NE,46,2.0,3.0,83,0.00,,---,0.00,VWS V14.01,2013-12-10 11:58:00,
2013-12-10 04:03:00,31.5,27.2,30.55,NE,46,0.0,1.0,84,0.00,,---,0.00,VWS V14.01,2013-12-10 12:03:00,
2013-12-10 04:08:00,31.5,27.2,30.55,NE,46,0.0,2.0,84,0.00,,---,0.00,VWS V14.01,2013-12-10 12:08:00,
2013-12-10 04:13:00,31.5,27.2,30.56,NE,46,0.0,0.0,84,0.00,,---,0.00,VWS V14.01,2013-12-10 12:13:00,
2013-12-10 04:18:00,31.5,26.9,30.55,NE,46,2.0,3.0,83,0.00,,---,0.00,VWS V14.01,2013-12-10 12:18:00,
2013-12-10 04:23:00,31.5,27.2,30.55,NE,46,2.0,3.0,84,0.00,,---,0.00,VWS V14.01,2013-12-10 12:23:00,
2013-12-10 04:28:00,31.4,27.1,30.55,NE,46,3.0,3.0,84,0.00,,---,0.00,VWS V14.01,2013-12-10 12:28:00,
2013-12-10 04:33:00,31.4,27.1,30.55,NE,46,3.0,3.0,84,0.00,,---,0.00,VWS V14.01,2013-12-10 12:33:00,
2013-12-10 04:38:00,31.4,27.1,30.55,NE,46,2.0,3.0,84,0.00,,---,0.00,VWS V14.01,2013-12-10 12:38:00,
2013-12-10 04:43:00,31.4,27.1,30.55,NE,46,0.0,0.0,84,0.00,,---,0.00,VWS V14.01,2013-12-10 12:43:00,
2013-12-10 04:48:00,31.4,27.1,30.55,NE,46,0.0,0.0,84,0.00,,---,0.00,VWS V14.01,2013-12-10 12:48:00,
2013-12-10 04:53:00,31.4,27.1,30.55,NE,46,0.0,0.0,84,0.00,,---,0.00,VWS V14.01,2013-12-10 12:53:00,
2013-12-10 04:58:00,31.4,27.1,30.54,NE,46,0.0,0.0,84,0.00,,---,0.00,VWS V14.01,2013-12-10 12:58:00,
2013-12-10 05:03:00,31.4,27.1,30.54,NE,46,0.0,0.0,84,0.00,,---,0.00,VWS V14.01,2013-12-10 13:03:00,
2013-12-10 05:08:00,31.4,27.1,30.54,NE,46,0.0,1.0,84,0.00,,---,0.00,VWS V14.01,2013-12-10 13:08:00,
2013-12-10 05:13:00,31.4,27.4,30.54,NE,46,0.0,0.0,85,0.00,,---,0.00,VWS V14.01,2013-12-10 13:13:00,
2013-12-10 05:18:00,31.4,27.4,30.54,NE,46,0.0,1.0,85,0.00,,---,0.00,VWS V14.01,2013-12-10 13:18:00,
2013-12-10 05:23:00,31.5,27.8,30.54,NE,46,0.0,0.0,86,0.00,,---,0.00,VWS V14.01,2013-12-10 13:23:00,
2013-12-10 05:28:00,31.5,27.8,30.53,NE,46,0.0,0.0,86,0.00,,---,0.00,VWS V14.01,2013-12-10 13:28:00,
2013-12-10 05:33:00,31.6,27.9,30.53,NE,46,0.0,0.0,86,0.00,,---,0.00,VWS V14.01,2013-12-10 13:33:00,
2013-12-10 05:38:00,31.7,28.0,30.53,NE,46,0.0,0.0,86,0.00,,---,0.00,VWS V14.01,2013-12-10 13:38:00,
2013-12-10 05:43:00,31.7,28.0,30.53,NE,46,0.0,2.0,86,0.00,,---,0.00,VWS V14.01,2013-12-10 13:43:00,
2013-12-10 05:48:00,31.7,28.0,30.53,NE,46,0.0,2.0,86,0.00,,---,0.00,VWS V14.01,2013-12-10 13:48:00,
2013-12-10 05:53:00,31.7,28.0,30.53,NE,46,0.0,0.0,86,0.00,,---,0.00,VWS V14.01,2013-12-10 13:53:00,
2013-12-10 05:58:00,31.7,28.0,30.52,NE,46,2.0,2.0,86,0.00,,---,0.00,VWS V14.01,2013-12-10 13:58:00,
2013-12-10 06:03:00,31.8,28.1,30.53,NE,46,1.0,1.0,86,0.00,,---,0.00,VWS V14.01,2013-12-10 14:03:00,
2013-12-10 06:08:00,31.8,28.1,30.52,NE,46,0.0,0.0,86,0.00,,---,0.00,VWS V14.01,2013-12-10 14:08:00,
2013-12-10 06:13:00,31.9,28.5,30.52,NE,46,0.0,1.0,87,0.00,,---,0.00,VWS V14.01,2013-12-10 14:13:00,
2013-12-10 06:18:00,31.9,28.5,30.52,NE,46,0.0,0.0,87,0.00,,---,0.00,VWS V14.01,2013-12-10 14:18:00,
2013-12-10 06:23:00,31.9,28.5,30.52,NE,46,0.0,0.0,87,0.00,,---,0.00,VWS V14.01,2013-12-10 14:23:00,
2013-12-10 06:28:00,32.0,28.6,30.52,NE,46,0.0,0.0,87,0.00,,---,0.00,VWS V14.01,2013-12-10 14:28:00,
2013-12-10 06:33:00,32.1,28.7,30.52,NE,46,0.0,2.0,87,0.00,,---,0.00,VWS V14.01,2013-12-10 14:33:00,
2013-12-10 06:38:00,32.1,28.7,30.52,NE,46,0.0,0.0,87,0.00,,---,0.00,VWS V14.01,2013-12-10 14:38:00,
2013-12-10 06:43:00,32.1,28.7,30.52,NE,46,0.0,1.0,87,0.00,,---,0.00,VWS V14.01,2013-12-10 14:43:00,
2013-12-10 06:48:00,32.1,28.7,30.52,NE,46,0.0,0.0,87,0.00,,---,0.00,VWS V14.01,2013-12-10 14:48:00,
2013-12-10 06:53:00,32.1,28.7,30.52,NE,46,1.0,2.0,87,0.00,,---,0.00,VWS V14.01,2013-12-10 14:53:00,
2013-12-10 06:58:00,32.1,28.7,30.52,NE,46,0.0,0.0,87,0.00,,---,0.00,VWS V14.01,2013-12-10 14:58:00,
2013-12-10 07:03:00,32.2,28.8,30.52,NE,46,0.0,2.0,87,0.00,,---,0.00,VWS V14.01,2013-12-10 15:03:00,
2013-12-10 07:08:00,32.2,28.8,30.52,NE,46,0.0,0.0,87,0.00,,---,0.00,VWS V14.01,2013-12-10 15:08:00,
2013-12-10 07:13:00,32.3,29.1,30.52,NE,46,0.0,0.0,88,0.00,,---,0.00,VWS V14.01,2013-12-10 15:13:00,
2013-12-10 07:18:00,32.3,28.9,30.52,NE,46,0.0,0.0,87,0.00,,---,0.00,VWS V14.01,2013-12-10 15:18:00,
2013-12-10 07:23:00,32.3,28.9,30.51,NE,46,0.0,0.0,87,0.00,,---,0.00,VWS V14.01,2013-12-10 15:23:00,
2013-12-10 07:28:00,32.3,28.9,30.51,NE,46,0.0,0.0,87,0.00,,---,0.00,VWS V14.01,2013-12-10 15:28:00,
2013-12-10 07:33:00,32.3,28.9,30.52,NE,46,0.0,0.0,87,0.00,,---,0.00,VWS V14.01,2013-12-10 15:33:00,
2013-12-10 07:38:00,32.4,29.2,30.51,NE,46,0.0,0.0,88,0.00,,---,0.00,VWS V14.01,2013-12-10 15:38:00,
2013-12-10 07:43:00,32.5,29.4,30.51,NE,46,0.0,0.0,88,0.00,,---,0.00,VWS V14.01,2013-12-10 15:43:00,
2013-12-10 07:48:00,32.6,29.5,30.51,NE,46,1.0,3.0,88,0.00,,---,0.00,VWS V14.01,2013-12-10 15:48:00,
2013-12-10 07:53:00,32.6,29.5,30.52,NE,46,0.0,2.0,88,0.00,,---,0.00,VWS V14.01,2013-12-10 15:53:00,
2013-12-10 07:58:00,32.5,29.1,30.52,NE,46,0.0,0.0,87,0.00,,---,0.00,VWS V14.01,2013-12-10 15:58:00,
2013-12-10 08:03:00,32.5,29.4,30.52,NE,46,0.0,0.0,88,0.00,,---,0.00,VWS V14.01,2013-12-10 16:03:00,
2013-12-10 08:08:00,32.6,29.5,30.52,NE,46,0.0,0.0,88,0.00,,---,0.00,VWS V14.01,2013-12-10 16:08:00,
2013-12-10 08:13:00,32.6,29.2,30.52,NE,46,0.0,0.0,87,0.00,,---,0.00,VWS V14.01,2013-12-10 16:13:00,
2013-12-10 08:18:00,32.6,29.5,30.52,NE,46,0.0,0.0,88,0.00,,---,0.00,VWS V14.01,2013-12-10 16:18:00,
2013-12-10 08:23:00,32.7,29.5,30.52,NE,46,1.0,2.0,88,0.00,,---,0.00,VWS V14.01,2013-12-10 16:23:00,
2013-12-10 08:28:00,32.8,29.6,30.52,NE,47,0.0,3.0,88,0.00,,---,0.00,VWS V14.01,2013-12-10 16:28:00,
2013-12-10 08:33:00,33.2,30.6,30.52,SSE,160,6.0,6.0,90,0.00,,---,0.00,VWS V14.01,2013-12-10 16:33:00,
2013-12-10 08:38:00,33.6,31.0,30.52,South,182,2.0,4.0,90,0.00,,---,0.00,VWS V14.01,2013-12-10 16:38:00,
2013-12-10 08:43:00,33.9,31.3,30.52,SSW,200,3.0,6.0,90,0.00,,---,0.00,VWS V14.01,2013-12-10 16:43:00,
2013-12-10 08:48:00,34.3,31.7,30.52,South,186,4.0,5.0,90,0.00,,---,0.00,VWS V14.01,2013-12-10 16:48:00,
2013-12-10 08:53:00,34.6,32.0,30.52,SSW,207,4.0,8.0,90,0.00,,---,0.00,VWS V14.01,2013-12-10 16:53:00,
2013-12-10 08:58:00,34.7,31.8,30.52,SSW,213,2.0,6.0,89,0.00,,---,0.00,VWS V14.01,2013-12-10 16:58:00,
2013-12-10 09:03:00,34.8,31.9,30.53,South,189,1.0,4.0,89,0.00,,---,0.00,VWS V14.01,2013-12-10 17:03:00,
2013-12-10 09:08:00,35.0,31.8,30.53,NE,51,4.0,4.0,88,0.00,,---,0.00,VWS V14.01,2013-12-10 17:08:00,
2013-12-10 09:13:00,34.7,31.0,30.53,ENE,63,3.0,4.0,86,0.00,,---,0.00,VWS V14.01,2013-12-10 17:13:00,
2013-12-10 09:18:00,34.4,30.4,30.53,ENE,61,3.0,4.0,85,0.00,,---,0.00,VWS V14.01,2013-12-10 17:18:00,
2013-12-10 09:23:00,34.3,30.3,30.53,ENE,61,2.0,3.0,85,0.00,,---,0.00,VWS V14.01,2013-12-10 17:23:00,
2013-12-10 09:28:00,34.3,30.6,30.53,ENE,61,1.0,2.0,86,0.00,,---,0.00,VWS V14.01,2013-12-10 17:28:00,
2013-12-10 09:33:00,34.2,30.5,30.53,ENE,57,3.0,4.0,86,0.00,,---,0.00,VWS V14.01,2013-12-10 17:33:00,
2013-12-10 09:38:00,34.2,30.5,30.53,ENE,65,3.0,3.0,86,0.00,,---,0.00,VWS V14.01,2013-12-10 17:38:00,
2013-12-10 09:43:00,34.2,30.2,30.54,ENE,65,5.0,5.0,85,0.00,,---,0.00,VWS V14.01,2013-12-10 17:43:00,
2013-12-10 09:48:00,34.2,30.2,30.54,ENE,71,4.0,5.0,85,0.00,,---,0.00,VWS V14.01,2013-12-10 17:48:00,
2013-12-10 09:53:00,34.1,30.1,30.54,ENE,67,4.0,5.0,85,0.00,,---,0.00,VWS V14.01,2013-12-10 17:53:00,
2013-12-10 09:58:00,34.1,30.4,30.54,ENE,66,3.0,4.0,86,0.00,,---,0.00,VWS V14.01,2013-12-10 17:58:00,
2013-12-10 10:03:00,34.2,30.5,30.54,ENE,63,3.0,3.0,86,0.00,,---,0.00,VWS V14.01,2013-12-10 18:03:00,
2013-12-10 10:08:00,34.2,30.5,30.54,ENE,68,2.0,4.0,86,0.00,,---,0.00,VWS V14.01,2013-12-10 18:08:00,
2013-12-10 10:13:00,34.3,30.6,30.54,NE,53,2.0,2.0,86,0.00,,---,0.00,VWS V14.01,2013-12-10 18:13:00,
2013-12-10 10:18:00,34.4,30.6,30.54,ENE,61,3.0,4.0,86,0.00,,---,0.00,VWS V14.01,2013-12-10 18:18:00,
2013-12-10 10:23:00,34.6,30.6,30.54,ENE,58,2.0,4.0,85,0.00,,---,0.00,VWS V14.01,2013-12-10 18:23:00,
2013-12-10 10:28:00,34.6,30.6,30.54,ENE,57,0.0,3.0,85,0.00,,---,0.00,VWS V14.01,2013-12-10 18:28:00,
2013-12-10 10:33:00,34.7,30.7,30.54,ENE,57,0.0,4.0,85,0.00,,---,0.00,VWS V14.01,2013-12-10 18:33:00,
2013-12-10 10:38:00,34.8,30.8,30.54,ENE,57,2.0,3.0,85,0.00,,---,0.00,VWS V14.01,2013-12-10 18:38:00,
2013-12-10 10:43:00,34.9,30.9,30.54,NE,55,2.0,4.0,85,0.00,,---,0.00,VWS V14.01,2013-12-10 18:43:00,
2013-12-10 10:48:00,35.0,31.0,30.54,NE,55,3.0,4.0,85,0.00,,---,0.00,VWS V14.01,2013-12-10 18:48:00,
2013-12-10 10:53:00,35.1,31.0,30.54,NE,54,1.0,4.0,85,0.00,,---,0.00,VWS V14.01,2013-12-10 18:53:00,
2013-12-10 10:58:00,35.2,31.1,30.54,NE,52,1.0,4.0,85,0.00,,---,0.00,VWS V14.01,2013-12-10 18:58:00,
2013-12-10 11:03:00,35.3,31.2,30.53,NE,54,1.0,4.0,85,0.00,,---,0.00,VWS V14.01,2013-12-10 19:03:00,
2013-12-10 11:08:00,35.4,31.4,30.53,NE,54,3.0,3.0,85,0.00,,---,0.00,VWS V14.01,2013-12-10 19:08:00,
2013-12-10 11:13:00,35.6,31.5,30.53,NE,54,1.0,2.0,85,0.00,,---,0.00,VWS V14.01,2013-12-10 19:13:00,
2013-12-10 11:18:00,35.8,31.7,30.53,NE,54,1.0,3.0,85,0.00,,---,0.00,VWS V14.01,2013-12-10 19:18:00,
2013-12-10 11:23:00,36.0,31.6,30.53,NE,54,1.0,3.0,84,0.00,,---,0.00,VWS V14.01,2013-12-10 19:23:00,
2013-12-10 11:28:00,36.1,31.7,30.53,NE,54,0.0,2.0,84,0.00,,---,0.00,VWS V14.01,2013-12-10 19:28:00,
2013-12-10 11:33:00,36.3,31.9,30.53,NE,54,0.0,2.0,84,0.00,,---,0.00,VWS V14.01,2013-12-10 19:33:00,
2013-12-10 11:38:00,36.6,32.2,30.53,NE,54,0.0,2.0,84,0.00,,---,0.00,VWS V14.01,2013-12-10 19:38:00,
2013-12-10 11:43:00,36.9,32.2,30.53,NE,54,1.0,2.0,83,0.00,,---,0.00,VWS V14.01,2013-12-10 19:43:00,
2013-12-10 11:48:00,37.2,32.5,30.52,NE,54,2.0,2.0,83,0.00,,---,0.00,VWS V14.01,2013-12-10 19:48:00,
2013-12-10 11:53:00,37.4,32.4,30.52,NE,54,2.0,3.0,82,0.00,,---,0.00,VWS V14.01,2013-12-10 19:53:00,
2013-12-10 11:58:00,37.6,32.3,30.52,NE,54,0.0,2.0,81,0.00,,---,0.00,VWS V14.01,2013-12-10 19:58:00,
2013-12-10 12:03:00,37.6,32.3,30.52,NE,54,0.0,0.0,81,0.00,,---,0.00,VWS V14.01,2013-12-10 20:03:00,
2013-12-10 12:09:00,37.6,32.3,30.52,NE,54,0.0,0.0,81,0.00,,---,0.00,VWS V14.01,2013-12-10 20:09:00,
2013-12-10 12:14:00,37.6,32.3,30.52,NE,54,0.0,0.0,81,0.00,,---,0.00,VWS V14.01,2013-12-10 20:14:00,
2013-12-10 12:19:00,37.5,32.2,30.52,NE,54,1.0,1.0,81,0.00,,---,0.00,VWS V14.01,2013-12-10 20:19:00,
2013-12-10 12:24:00,37.5,32.2,30.52,NE,54,0.0,0.0,81,0.00,,---,0.00,VWS V14.01,2013-12-10 20:24:00,
2013-12-10 12:29:00,37.6,32.3,30.52,NE,54,0.0,2.0,81,0.00,,---,0.00,VWS V14.01,2013-12-10 20:29:00,
2013-12-10 12:34:00,37.7,32.4,30.52,NE,54,2.0,3.0,81,0.00,,---,0.00,VWS V14.01,2013-12-10 20:34:00,
2013-12-10 12:39:00,37.7,32.4,30.52,NE,54,1.0,1.0,81,0.00,,---,0.00,VWS V14.01,2013-12-10 20:39:00,
2013-12-10 12:44:00,37.8,32.5,30.51,NE,54,1.0,1.0,81,0.00,,---,0.00,VWS V14.01,2013-12-10 20:44:00,
2013-12-10 12:49:00,37.9,32.6,30.51,NE,54,1.0,2.0,81,0.00,,---,0.00,VWS V14.01,2013-12-10 20:49:00,
2013-12-10 12:54:00,38.0,32.7,30.51,NE,54,0.0,0.0,81,0.00,,---,0.00,VWS V14.01,2013-12-10 20:54:00,
2013-12-10 12:59:00,38.2,32.9,30.51,NE,54,0.0,0.0,81,0.00,,---,0.00,VWS V14.01,2013-12-10 20:59:00,
2013-12-10 13:04:00,38.5,32.9,30.51,NE,54,2.0,2.0,80,0.00,,---,0.00,VWS V14.01,2013-12-10 21:04:00,
2013-12-10 13:09:00,38.7,33.1,30.51,NE,54,1.0,1.0,80,0.00,,---,0.00,VWS V14.01,2013-12-10 21:09:00,
2013-12-10 13:14:00,38.8,32.9,30.51,NE,54,2.0,2.0,79,0.00,,---,0.00,VWS V14.01,2013-12-10 21:14:00,
2013-12-10 13:19:00,38.9,33.0,30.51,NE,54,1.0,3.0,79,0.00,,---,0.00,VWS V14.01,2013-12-10 21:19:00,
2013-12-10 13:24:00,38.9,33.0,30.51,NE,54,0.0,1.0,79,0.00,,---,0.00,VWS V14.01,2013-12-10 21:24:00,
2013-12-10 13:29:00,39.0,33.0,30.51,NE,54,2.0,2.0,79,0.00,,---,0.00,VWS V14.01,2013-12-10 21:29:00,
2013-12-10 13:34:00,39.0,33.0,30.50,NE,54,0.0,0.0,79,0.00,,---,0.00,VWS V14.01,2013-12-10 21:34:00,
2013-12-10 13:39:00,39.1,33.2,30.50,NE,54,0.0,0.0,79,0.00,,---,0.00,VWS V14.01,2013-12-10 21:39:00,
2013-12-10 13:44:00,39.2,33.2,30.50,NE,54,0.0,1.0,79,0.00,,---,0.00,VWS V14.01,2013-12-10 21:44:00,
2013-12-10 13:49:00,39.2,32.9,30.50,NE,54,0.0,1.0,78,0.00,,---,0.00,VWS V14.01,2013-12-10 21:49:00,
2013-12-10 13:54:00,39.2,33.2,30.50,NE,54,0.0,0.0,79,0.00,,---,0.00,VWS V14.01,2013-12-10 21:54:00,
2013-12-10 13:59:00,39.3,33.3,30.50,NE,54,2.0,2.0,79,0.00,,---,0.00,VWS V14.01,2013-12-10 21:59:00,
2013-12-10 14:04:00,39.3,33.7,30.50,NE,54,0.0,1.0,80,0.00,,---,0.00,VWS V14.01,2013-12-10 22:04:00,
2013-12-10 14:09:00,39.2,33.6,30.50,NE,54,0.0,0.0,80,0.00,,---,0.00,VWS V14.01,2013-12-10 22:09:00,
2013-12-10 14:14:00,39.3,33.7,30.50,NE,54,0.0,0.0,80,0.00,,---,0.00,VWS V14.01,2013-12-10 22:14:00,
2013-12-10 14:19:00,39.4,33.8,30.50,NE,54,1.0,2.0,80,0.00,,---,0.00,VWS V14.01,2013-12-10 22:19:00,
2013-12-10 14:24:00,39.6,33.6,30.50,NE,54,0.0,0.0,79,0.00,,---,0.00,VWS V14.01,2013-12-10 22:24:00,
2013-12-10 14:29:00,39.7,33.4,30.50,NE,54,0.0,0.0,78,0.00,,---,0.00,VWS V14.01,2013-12-10 22:29:00,
2013-12-10 14:34:00,39.9,33.6,30.50,NE,54,1.0,2.0,78,0.00,,---,0.00,VWS V14.01,2013-12-10 22:34:00,
2013-12-10 14:39:00,40.0,33.4,30.50,NE,54,0.0,0.0,77,0.00,,---,0.00,VWS V14.01,2013-12-10 22:39:00,
2013-12-10 14:44:00,40.2,33.6,30.50,NE,54,1.0,1.0,77,0.00,,---,0.00,VWS V14.01,2013-12-10 22:44:00,
2013-12-10 14:49:00,40.2,33.6,30.50,NE,54,0.0,0.0,77,0.00,,---,0.00,VWS V14.01,2013-12-10 22:49:00,
2013-12-10 14:54:00,40.2,33.9,30.50,NE,54,1.0,2.0,78,0.00,,---,0.00,VWS V14.01,2013-12-10 22:54:00,
2013-12-10 14:59:00,39.9,33.9,30.50,NNE,20,2.0,3.0,79,0.00,,---,0.00,VWS V14.01,2013-12-10 22:59:00,
2013-12-10 15:04:00,39.4,33.8,30.50,North,350,0.0,1.0,80,0.00,,---,0.00,VWS V14.01,2013-12-10 23:04:00,
2013-12-10 15:09:00,39.1,33.8,30.50,North,350,0.0,0.0,81,0.00,,---,0.00,VWS V14.01,2013-12-10 23:09:00,
2013-12-10 15:14:00,38.8,33.8,30.50,North,350,0.0,0.0,82,0.00,,---,0.00,VWS V14.01,2013-12-10 23:14:00,
2013-12-10 15:19:00,38.7,34.0,30.50,North,350,1.0,1.0,83,0.00,,---,0.00,VWS V14.01,2013-12-10 23:19:00,
2013-12-10 15:24:00,38.6,33.9,30.51,North,350,0.0,2.0,83,0.00,,---,0.00,VWS V14.01,2013-12-10 23:24:00,
2013-12-10 15:29:00,38.5,33.8,30.51,North,350,0.0,1.0,83,0.00,,---,0.00,VWS V14.01,2013-12-10 23:29:00,
2013-12-10 15:34:00,38.5,33.8,30.51,North,350,1.0,1.0,83,0.00,,---,0.00,VWS V14.01,2013-12-10 23:34:00,
2013-12-10 15:39:00,38.4,34.0,30.51,North,350,0.0,1.0,84,0.00,,---,0.00,VWS V14.01,2013-12-10 23:39:00,
2013-12-10 15:44:00,38.3,33.9,30.51,North,350,0.0,0.0,84,0.00,,---,0.00,VWS V14.01,2013-12-10 23:44:00,
2013-12-10 15:49:00,38.2,33.8,30.51,North,350,0.0,0.0,84,0.00,,---,0.00,VWS V14.01,2013-12-10 23:49:00,
2013-12-10 15:54:00,38.2,33.8,30.51,North,351,0.0,0.0,84,0.00,,---,0.00,VWS V14.01,2013-12-10 23:54:00,
2013-12-10 15:59:00,38.1,33.7,30.51,North,350,0.0,0.0,84,0.00,,---,0.00,VWS V14.01,2013-12-10 23:59:00,
2013-12-10 16:04:00,38.0,33.6,30.51,North,350,0.0,0.0,84,0.00,,---,0.00,VWS V14.01,2013-12-11 00:04:00,
2013-12-10 16:09:00,38.0,33.6,30.50,North,350,0.0,0.0,84,0.00,,---,0.00,VWS V14.01,2013-12-11 00:09:00,
2013-12-10 16:14:00,37.9,33.5,30.50,North,351,0.0,0.0,84,0.00,,---,0.00,VWS V14.01,2013-12-11 00:14:00,
2013-12-10 16:19:00,37.9,33.5,30.50,North,350,0.0,0.0,84,0.00,,---,0.00,VWS V14.01,2013-12-11 00:19:00,
2013-12-10 16:24:00,37.8,33.7,30.50,North,350,0.0,0.0,85,0.00,,---,0.00,VWS V14.01,2013-12-11 00:24:00,
2013-12-10 16:29:00,37.7,33.6,30.50,North,350,0.0,0.0,85,0.00,,---,0.00,VWS V14.01,2013-12-11 00:29:00,
2013-12-10 16:34:00,37.7,33.6,30.50,North,350,0.0,0.0,85,0.00,,---,0.00,VWS V14.01,2013-12-11 00:34:00,
2013-12-10 16:39:00,37.6,33.5,30.50,North,350,0.0,0.0,85,0.00,,---,0.00,VWS V14.01,2013-12-11 00:39:00,
2013-12-10 16:44:00,37.5,33.4,30.49,North,350,0.0,0.0,85,0.00,,---,0.00,VWS V14.01,2013-12-11 00:44:00,
2013-12-10 16:49:00,37.4,33.3,30.49,North,350,0.0,0.0,85,0.00,,---,0.00,VWS V14.01,2013-12-11 00:49:00,
2013-12-10 16:54:00,37.3,33.2,30.49,North,351,0.0,0.0,85,0.00,,---,0.00,VWS V14.01,2013-12-11 00:54:00,
2013-12-10 16:59:00,37.3,32.9,30.49,North,351,0.0,0.0,84,0.00,,---,0.00,VWS V14.01,2013-12-11 00:59:00,
2013-12-10 17:04:00,37.2,32.8,30.49,North,350,0.0,0.0,84,0.00,,---,0.00,VWS V14.01,2013-12-11 01:04:00,
2013-12-10 17:09:00,37.1,32.7,30.49,North,351,0.0,0.0,84,0.00,,---,0.00,VWS V14.01,2013-12-11 01:09:00,
2013-12-10 17:14:00,37.0,32.9,30.49,North,351,0.0,0.0,85,0.00,,---,0.00,VWS V14.01,2013-12-11 01:14:00,
2013-12-10 17:19:00,36.9,32.8,30.49,North,350,0.0,0.0,85,0.00,,---,0.00,VWS V14.01,2013-12-11 01:19:00,
2013-12-10 17:24:00,36.8,32.7,30.49,North,350,0.0,0.0,85,0.00,,---,0.00,VWS V14.01,2013-12-11 01:24:00,
2013-12-10 17:29:00,36.7,32.6,30.49,North,351,0.0,1.0,85,0.00,,---,0.00,VWS V14.01,2013-12-11 01:29:00,
2013-12-10 17:34:00,36.6,32.5,30.49,North,351,0.0,0.0,85,0.00,,---,0.00,VWS V14.01,2013-12-11 01:34:00,
2013-12-10 17:39:00,36.6,32.5,30.49,North,350,0.0,0.0,85,0.00,,---,0.00,VWS V14.01,2013-12-11 01:39:00,
2013-12-10 17:44:00,36.4,32.0,30.49,North,350,0.0,0.0,84,0.00,,---,0.00,VWS V14.01,2013-12-11 01:44:00,
2013-12-10 17:49:00,36.4,32.0,30.49,North,351,0.0,0.0,84,0.00,,---,0.00,VWS V14.01,2013-12-11 01:49:00,
2013-12-10 17:54:00,36.3,31.9,30.48,North,351,0.0,0.0,84,0.00,,---,0.00,VWS V14.01,2013-12-11 01:54:00,
2013-12-10 17:59:00,36.3,31.9,30.49,North,350,0.0,0.0,84,0.00,,---,0.00,VWS V14.01,2013-12-11 01:59:00,
2013-12-10 18:04:00,36.2,31.8,30.48,North,351,0.0,0.0,84,0.00,,---,0.00,VWS V14.01,2013-12-11 02:04:00,
2013-12-10 18:09:00,36.2,31.8,30.48,North,350,0.0,0.0,84,0.00,,---,0.00,VWS V14.01,2013-12-11 02:09:00,
2013-12-10 18:14:00,36.2,31.8,30.49,North,351,0.0,0.0,84,0.00,,---,0.00,VWS V14.01,2013-12-11 02:14:00,
2013-12-10 18:19:00,36.1,31.7,30.48,North,350,0.0,0.0,84,0.00,,---,0.00,VWS V14.01,2013-12-11 02:19:00,
2013-12-10 18:24:00,36.1,32.0,30.48,North,351,0.0,0.0,85,0.00,,---,0.00,VWS V14.01,2013-12-11 02:24:00,
2013-12-10 18:29:00,36.1,32.0,30.48,North,350,0.0,0.0,85,0.00,,---,0.00,VWS V14.01,2013-12-11 02:29:00,
2013-12-10 18:34:00,36.0,31.9,30.48,North,350,2.0,2.0,85,0.00,,---,0.00,VWS V14.01,2013-12-11 02:34:00,
2013-12-10 18:39:00,35.9,31.8,30.48,North,351,0.0,0.0,85,0.00,,---,0.00,VWS V14.01,2013-12-11 02:39:00,
2013-12-10 18:44:00,35.9,31.8,30.48,North,351,0.0,0.0,85,0.00,,---,0.00,VWS V14.01,2013-12-11 02:44:00,
2013-12-10 18:50:00,35.9,31.8,30.47,North,351,0.0,0.0,85,0.00,,---,0.00,VWS V14.01,2013-12-11 02:50:00,
2013-12-10 18:55:00,35.8,31.7,30.47,North,350,0.0,0.0,85,0.00,,---,0.00,VWS V14.01,2013-12-11 02:55:00,
2013-12-10 19:00:00,35.7,31.6,30.47,North,351,0.0,0.0,85,0.00,,---,0.00,VWS V14.01,2013-12-11 03:00:00,
2013-12-10 19:05:00,35.7,31.6,30.47,North,351,0.0,0.0,85,0.00,,---,0.00,VWS V14.01,2013-12-11 03:05:00,
2013-12-10 19:10:00,35.7,31.6,30.47,North,351,0.0,0.0,85,0.00,,---,0.00,VWS V14.01,2013-12-11 03:10:00,
2013-12-10 19:15:00,35.6,31.5,30.47,North,351,0.0,1.0,85,0.00,,---,0.00,VWS V14.01,2013-12-11 03:15:00,
2013-12-10 19:20:00,35.6,31.8,30.47,North,350,0.0,0.0,86,0.00,,---,0.00,VWS V14.01,2013-12-11 03:20:00,
2013-12-10 19:25:00,35.6,31.8,30.47,North,350,0.0,0.0,86,0.00,,---,0.00,VWS V14.01,2013-12-11 03:25:00,
2013-12-10 19:30:00,35.5,31.7,30.47,North,351,0.0,1.0,86,0.00,,---,0.00,VWS V14.01,2013-12-11 03:30:00,
2013-12-10 19:35:00,35.5,31.7,30.47,North,351,0.0,0.0,86,0.00,,---,0.00,VWS V14.01,2013-12-11 03:35:00,
2013-12-10 19:40:00,35.4,31.6,30.47,North,351,0.0,0.0,86,0.00,,---,0.00,VWS V14.01,2013-12-11 03:40:00,
2013-12-10 19:45:00,35.4,31.6,30.47,North,351,0.0,0.0,86,0.00,,---,0.00,VWS V14.01,2013-12-11 03:45:00,
2013-12-10 19:50:00,35.3,31.5,30.47,North,351,0.0,0.0,86,0.00,,---,0.00,VWS V14.01,2013-12-11 03:50:00,
2013-12-10 19:55:00,35.3,31.8,30.47,North,351,1.0,2.0,87,0.00,,---,0.00,VWS V14.01,2013-12-11 03:55:00,
2013-12-10 20:00:00,35.3,31.8,30.47,North,351,1.0,1.0,87,0.00,,---,0.00,VWS V14.01,2013-12-11 04:00:00,
2013-12-10 20:05:00,35.3,31.8,30.48,North,351,1.0,2.0,87,0.00,,---,0.00,VWS V14.01,2013-12-11 04:05:00,
2013-12-10 20:10:00,35.3,31.8,30.48,North,351,2.0,2.0,87,0.00,,---,0.00,VWS V14.01,2013-12-11 04:10:00,
2013-12-10 20:15:00,35.3,31.8,30.48,North,351,1.0,1.0,87,0.00,,---,0.00,VWS V14.01,2013-12-11 04:15:00,
2013-12-10 20:20:00,35.2,31.7,30.48,North,351,0.0,0.0,87,0.00,,---,0.00,VWS V14.01,2013-12-11 04:20:00,
2013-12-10 20:25:00,35.2,31.7,30.48,North,351,0.0,0.0,87,0.00,,---,0.00,VWS V14.01,2013-12-11 04:25:00,
2013-12-10 20:30:00,35.1,31.6,30.48,North,351,1.0,1.0,87,0.00,,---,0.00,VWS V14.01,2013-12-11 04:30:00,
2013-12-10 20:35:00,35.0,31.5,30.48,North,351,0.0,1.0,87,0.00,,---,0.00,VWS V14.01,2013-12-11 04:35:00,
2013-12-10 20:40:00,35.0,31.5,30.48,North,351,2.0,3.0,87,0.00,,---,0.00,VWS V14.01,2013-12-11 04:40:00,
2013-12-10 20:45:00,35.0,31.8,30.48,North,351,0.0,1.0,88,0.00,,---,0.00,VWS V14.01,2013-12-11 04:45:00,
2013-12-10 20:50:00,34.9,31.7,30.48,North,351,0.0,0.0,88,0.00,,---,0.00,VWS V14.01,2013-12-11 04:50:00,
2013-12-10 20:55:00,34.8,31.6,30.48,North,351,0.0,0.0,88,0.00,,---,0.00,VWS V14.01,2013-12-11 04:55:00,
2013-12-10 21:00:00,34.8,31.6,30.48,North,351,0.0,0.0,88,0.00,,---,0.00,VWS V14.01,2013-12-11 05:00:00,
2013-12-10 21:01:00,34.8,31.6,30.48,North,351,0.0,0.0,88,0.00,,---,0.00,VWS V14.01,2013-12-11 05:01:00,
2013-12-10 21:02:00,34.8,31.6,30.48,North,351,0.0,0.0,88,0.00,,---,0.00,VWS V14.01,2013-12-11 05:02:00,
2013-12-10 21:06:00,34.8,31.6,30.48,North,351,0.0,1.0,88,0.00,,---,0.00,VWS V14.01,2013-12-11 05:06:00,
2013-12-10 21:11:00,34.7,31.5,30.48,North,351,0.0,0.0,88,0.00,,---,0.00,VWS V14.01,2013-12-11 05:11:00,
2013-12-10 21:16:00,34.7,31.5,30.48,North,351,0.0,0.0,88,0.00,,---,0.00,VWS V14.01,2013-12-11 05:16:00,
2013-12-10 21:22:00,34.7,31.5,30.48,North,351,0.0,0.0,88,0.00,,---,0.00,VWS V14.01,2013-12-11 05:22:00,
2013-12-10 21:27:00,34.6,31.4,30.48,North,351,0.0,0.0,88,0.00,,---,0.00,VWS V14.01,2013-12-11 05:27:00,
2013-12-10 21:32:00,34.6,31.4,30.48,North,351,0.0,0.0,88,0.00,,---,0.00,VWS V14.01,2013-12-11 05:32:00,
2013-12-10 21:37:00,34.5,31.3,30.48,North,351,0.0,0.0,88,0.00,,---,0.00,VWS V14.01,2013-12-11 05:37:00,
2013-12-10 21:42:00,34.4,31.5,30.49,North,351,0.0,0.0,89,0.00,,---,0.00,VWS V14.01,2013-12-11 05:42:00,
2013-12-10 21:47:00,34.4,31.5,30.48,North,351,1.0,2.0,89,0.00,,---,0.00,VWS V14.01,2013-12-11 05:47:00,
2013-12-10 21:52:00,34.3,31.4,30.48,North,351,0.0,0.0,89,0.00,,---,0.00,VWS V14.01,2013-12-11 05:52:00,
2013-12-10 21:57:00,34.3,31.4,30.48,North,351,0.0,0.0,89,0.00,,---,0.00,VWS V14.01,2013-12-11 05:57:00,
2013-12-10 22:02:00,34.2,31.3,30.48,North,351,0.0,0.0,89,0.00,,---,0.00,VWS V14.01,2013-12-11 06:02:00,
2013-12-10 22:07:00,34.2,31.3,30.48,North,351,0.0,0.0,89,0.00,,---,0.00,VWS V14.01,2013-12-11 06:07:00,
2013-12-10 22:12:00,34.1,31.2,30.48,North,351,0.0,0.0,89,0.00,,---,0.00,VWS V14.01,2013-12-11 06:12:00,
2013-12-10 22:18:00,34.1,31.5,30.48,North,351,2.0,2.0,90,0.00,,---,0.00,VWS V14.01,2013-12-11 06:18:00,
2013-12-10 22:23:00,34.1,31.5,30.48,North,351,2.0,3.0,90,0.00,,---,0.00,VWS V14.01,2013-12-11 06:23:00,
2013-12-10 22:28:00,34.2,31.6,30.48,NE,50,3.0,4.0,90,0.00,,---,0.00,VWS V14.01,2013-12-11 06:28:00,
2013-12-10 22:33:00,34.3,31.7,30.48,NE,56,2.0,3.0,90,0.00,,---,0.00,VWS V14.01,2013-12-11 06:33:00,
2013-12-10 22:38:00,34.3,31.7,30.48,NE,56,1.0,2.0,90,0.00,,---,0.00,VWS V14.01,2013-12-11 06:38:00,
2013-12-10 22:43:00,34.3,31.7,30.48,NE,56,0.0,1.0,90,0.00,,---,0.00,VWS V14.01,2013-12-11 06:43:00,
2013-12-10 22:48:00,34.2,31.6,30.48,NE,56,0.0,0.0,90,0.00,,---,0.00,VWS V14.01,2013-12-11 06:48:00,
2013-12-10 22:53:00,34.1,31.5,30.48,NE,56,0.0,0.0,90,0.00,,---,0.00,VWS V14.01,2013-12-11 06:53:00,
2013-12-10 22:58:00,34.1,31.5,30.48,NE,56,1.0,2.0,90,0.00,,---,0.00,VWS V14.01,2013-12-11 06:58:00,
2013-12-10 23:03:00,33.9,31.3,30.48,NE,56,0.0,0.0,90,0.00,,---,0.00,VWS V14.01,2013-12-11 07:03:00,
2013-12-10 23:08:00,33.8,31.2,30.48,NE,56,1.0,1.0,90,0.00,,---,0.00,VWS V14.01,2013-12-11 07:08:00,
2013-12-10 23:13:00,33.7,31.1,30.48,NE,56,2.0,3.0,90,0.00,,---,0.00,VWS V14.01,2013-12-11 07:13:00,
2013-12-10 23:18:00,33.6,31.0,30.48,NE,56,2.0,2.0,90,0.00,,---,0.00,VWS V14.01,2013-12-11 07:18:00,
2013-12-10 23:23:00,33.5,30.9,30.48,NE,56,1.0,2.0,90,0.00,,---,0.00,VWS V14.01,2013-12-11 07:23:00,
2013-12-10 23:28:00,33.5,30.9,30.47,NE,56,0.0,0.0,90,0.00,,---,0.00,VWS V14.01,2013-12-11 07:28:00,
2013-12-10 23:33:00,33.4,30.8,30.47,NE,56,0.0,0.0,90,0.00,,---,0.00,VWS V14.01,2013-12-11 07:33:00,
2013-12-10 23:38:00,33.4,31.1,30.47,NE,56,0.0,0.0,91,0.00,,---,0.00,VWS V14.01,2013-12-11 07:38:00,
2013-12-10 23:43:00,33.3,31.0,30.48,NE,56,0.0,0.0,91,0.00,,---,0.00,VWS V14.01,2013-12-11 07:43:00,
2013-12-10 23:48:00,33.2,30.9,30.47,NE,56,0.0,1.0,91,0.00,,---,0.00,VWS V14.01,2013-12-11 07:48:00,
2013-12-10 23:53:00,33.0,30.7,30.47,NE,56,0.0,0.0,91,0.00,,---,0.00,VWS V14.01,2013-12-11 07:53:00,
2013-12-10 23:58:00,32.9,30.6,30.47,NE,56,0.0,0.0,91,0.00,,---,0.00,VWS V14.01,2013-12-11 07:58:00,